WI5KEY Weather Reports


Display with metric or nautical units.
time (UTC)temp
F
wind
direction
speed
MPH
gust
MPH
rain 1hr
in
rain 24hr
in
rain mn
in
humidity
%
barometer
mb
20260509041552 74 121 3.0 7.0 0.00 0.00 0.00 90 1010.2
20260509040051 74 119 2.0 7.0 0.00 0.00 0.00 90 1010.1
20260509034553 74 111 1.0 7.0 0.00 0.00 0.00 90 1009.9
20260509033053 74 88 1.0 6.0 0.00 0.00 0.00 90 1009.9
20260509031548 74 101 0.0 4.0 0.00 0.00 0.00 90 1009.9
20260509030047 74 94 0.0 3.0 0.00 0.00 0.00 89 1009.8
20260509024546 75 115 1.0 6.0 0.00 0.00 0.00 89 1009.4
20260509023046 75 119 1.0 4.0 0.00 0.00 0.00 88 1009.2
20260509021547 75 121 2.0 6.0 0.00 0.00 0.00 88 1009.1
20260509020045 75 124 2.0 6.0 0.00 0.00 0.00 87 1008.9
20260509014543 76 119 2.0 4.0 0.00 0.00 0.00 87 1008.9
20260509013052 76 126 4.0 8.0 0.00 0.00 0.00 86 1008.7
20260509011542 76 124 1.0 6.0 0.00 0.00 0.00 85 1008.5
20260509010041 76 118 2.0 6.0 0.00 0.00 0.00 84 1008.3
20260509004541 77 90 2.0 6.0 0.00 0.00 0.00 84 1008.4
20260509003038 77 90 1.0 6.0 0.00 0.00 0.00 83 1008.4
20260509001548 77 117 1.0 6.0 0.00 0.00 0.00 83 1008.6
20260509000038 77 122 3.0 8.0 0.00 0.00 0.00 83 1008.4
20260508234536 77 80 1.0 8.0 0.00 0.00 0.00 82 1008.4
20260508233035 77 84 1.0 6.0 0.00 0.00 0.00 82 1008.5
20260508231635 77 96 2.0 9.0 0.00 0.00 0.00 82 1008.3
20260508230035 77 69 4.0 9.0 0.00 0.00 0.00 82 1008.5
20260508224541 77 102 1.0 6.0 0.00 0.00 0.00 83 1008.8
20260508223042 77 97 2.0 6.0 0.00 0.00 0.00 82 1008.8
20260508221528 77 94 2.0 6.0 0.00 0.00 0.00 82 1009.0
20260508220030 77 59 3.0 8.0 0.00 0.00 0.00 82 1009.0
20260508214547 77 49 2.0 7.0 0.00 0.00 0.00 82 1009.2
20260508213024 77 56 2.0 7.0 0.00 0.00 0.00 82 1009.3
20260508211522 77 84 0.0 8.0 0.00 0.00 0.00 81 1009.5
20260508210021 77 84 3.0 8.0 0.00 0.00 0.00 82 1009.7
20260508204519 77 135 5.0 9.0 0.00 0.00 0.00 83 1009.9
20260508203020 77 124 4.0 9.0 0.00 0.00 0.00 80 1010.0
20260508201516 77 136 6.0 10.0 0.00 0.00 0.00 80 1010.1
20260508200019 77 144 6.0 11.0 0.00 0.00 0.00 79 1010.3
20260508194516 77 123 5.0 12.0 0.00 0.00 0.00 79 1010.4
20260508193010 76 122 5.0 11.0 0.00 0.00 0.00 77 1010.6
20260508191507 76 121 2.0 11.0 0.00 0.00 0.00 78 1010.8
20260508190009 75 132 2.0 6.0 0.00 0.00 0.00 78 1011.0
20260508184604 73 32 2.0 6.0 0.00 0.00 0.00 80 1011.3
20260508183113 73 32 1.0 5.0 0.00 0.00 0.00 80 1011.5
20260508181654 72 82 1.0 8.0 0.00 0.00 0.00 79 1011.8
20260508174604 72 40 2.0 8.0 0.00 0.00 0.00 79 1012.1
20260508173047 71 35 3.0 5.0 0.00 0.00 0.00 79 1012.1
20260508171545 71 49 1.0 4.0 0.00 0.00 0.00 79 1012.3
20260508170046 70 78 1.0 6.0 0.00 0.00 0.00 80 1012.5
20260508164546 69 102 2.0 7.0 0.00 0.00 0.00 81 1012.5
20260508163037 69 35 3.0 6.0 0.00 0.00 0.00 81 1012.6
20260508161534 68 58 3.0 8.0 0.00 0.00 0.00 81 1012.6
20260508160034 67 25 3.0 9.0 0.00 0.00 0.00 82 1012.9
20260508154530 67 50 3.0 8.0 0.00 0.00 0.00 82 1013.3
20260508153034 67 29 3.0 9.0 0.00 0.00 0.00 82 1013.5
20260508151527 66 38 3.0 10.0 0.00 0.00 0.00 83 1013.4
20260508150029 66 29 5.0 11.0 0.00 0.00 0.00 83 1013.5
20260508144528 65 9 3.0 10.0 0.00 0.00 0.00 83 1013.8
20260508143023 65 40 2.0 11.0 0.00 0.00 0.00 82 1013.7
20260508141521 65 51 3.0 10.0 0.00 0.00 0.00 83 1013.9
20260508140023 65 5 6.0 11.0 0.00 0.00 0.00 82 1013.6
20260508134516 64 33 3.0 9.0 0.00 0.00 0.00 83 1013.7
20260508133016 64 26 1.0 5.0 0.00 0.00 0.00 84 1013.6
20260508131514 64 13 2.0 6.0 0.00 0.00 0.00 84 1013.6
20260508130029 63 20 2.0 6.0 0.00 0.00 0.00 85 1013.5
20260508124513 63 13 1.0 5.0 0.00 0.00 0.00 84 1013.7
20260508123016 63 57 3.0 8.0 0.00 0.00 0.00 84 1013.7
20260508121513 63 28 2.0 6.0 0.00 0.00 0.00 84 1013.6
20260508120012 63 23 1.0 9.0 0.00 0.00 0.00 85 1013.6
20260508114510 63 32 3.0 8.0 0.00 0.00 0.00 84 1013.2
20260508113009 63 37 5.0 9.0 0.00 0.00 0.00 83 1013.6
20260508111507 64 30 2.0 6.0 0.00 0.00 0.00 82 1014.3
20260508110005 64 335 1.0 6.0 0.00 0.00 0.00 81 1014.3
20260508104504 64 5 1.0 4.0 0.00 0.00 0.00 81 1013.4
20260508103005 64 87 2.0 9.0 0.00 0.00 0.00 79 1013.4
20260508101502 64 93 4.0 11.0 0.00 0.00 0.00 79 1012.9
20260508100000 64 79 3.0 10.0 0.00 0.00 0.00 78 1013.0
20260508094600 64 51 4.0 10.0 0.00 0.00 0.00 77 1013.9
20260508093105 64 20 7.0 11.0 0.00 0.00 0.00 77 1013.9
20260508091557 64 11 1.0 6.0 0.00 0.00 0.00 78 1014.2
20260508090106 64 9 0.0 8.0 0.00 0.00 0.00 78 1014.5
20260508084558 64 28 4.0 7.0 0.00 0.00 0.00 78 1013.5
20260508083055 64 5 3.0 9.0 0.00 0.00 0.00 77 1013.5
20260508081558 64 5 3.0 9.0 0.00 0.00 0.00 78 1013.8
20260508080053 64 333 1.0 4.0 0.00 0.00 0.00 78 1014.2
20260508074552 64 319 2.0 5.0 0.00 0.00 0.00 78 1014.6
20260508073152 64 349 2.0 9.0 0.00 0.00 0.00 77 1014.5
20260508071550 64 19 1.0 5.0 0.00 0.00 0.00 78 1014.5
20260508070051 64 45 3.0 8.0 0.00 0.00 0.00 77 1014.4
20260508064648 64 26 1.0 8.0 0.00 0.00 0.00 77 1014.8
20260508063058 64 64 3.0 13.0 0.00 0.00 0.00 77 1013.6
20260508061547 64 15 5.0 11.0 0.00 0.00 0.00 77 1014.4
20260508060045 64 28 3.0 6.0 0.00 0.00 0.00 77 1015.1
20260508054541 64 328 1.0 3.0 0.00 0.00 0.00 78 1015.9
20260508053042 64 329 1.0 9.0 0.00 0.00 0.00 77 1015.7
20260508051541 64 317 3.0 6.0 0.00 0.00 0.00 77 1016.1
20260508050039 64 39 4.0 9.0 0.00 0.00 0.00 77 1014.4
20260508044533 64 72 5.0 11.0 0.00 0.00 0.00 76 1013.7
20260508043044 65 38 5.0 9.0 0.00 0.00 0.00 76 1014.1